EYESAT A

Satellite information

Favourite Embed

Satellite Type and Status

PAYLOADIN ORBIT

Key statistics

Satellite EYESAT A at a glance.

Uptime

11710

Days in orbit

Revolutions

≈ 14.3

Per day

Orbit

SSO

Sun Synchronous Orbit

Inclination

98.7

Latest

Satellite identification and parameters

Extended collection of information and parameters for EYESAT A.

Object identification

Identified? True

Debris? False

Object name: EYESAT A

International designator: 1993-061C

Object number (NORAD): 22825

Object ID (CCSDS): 22825

Country: UNITED STATES OF AMERICA (US)

Current information (Y/N): Y

RCS size: MEDIUM

Orbital parameters

Period: 100.64 minutes

Inclination: 98.7225 deg

SMA: 7167.04 km

Apoapsis: 795.714 km

Periapsis: 782.097 km

RAAN: 353.0305 deg

Eccentricy: 0.00095

Argument of periapsis: 91.5805 deg

Mean anomaly: 268.6466 deg

Mean motion: 14.3084631 rev/day

Mean motion (dot): 0.00000198 rev/day2

B* drag term: 0.000092667859 1/REarth

Two-line elements (TLE)

Creation date: Oct. 18, 2025, 2:17 a.m.

Reference frame: TEME

Reference center: EARTH

Epoch: Oct. 17, 2025, 9:59 p.m. UTC

TLE line 0: 0 EYESAT A

TLE line 1: 1 22825U 93061C 25290.91660480 .00000198 00000-0 92668-4 0 9993

TLE line 2: 2 22825 98.7225 353.0305 0009500 91.5805 268.6466 14.30846310672356

Live tracking on map

Real-time ground track for satellite EYESAT A.

In-orbit conjunctions

A list of the most updated potential collisions computed for object EYESAT A.

Target Orbit TCA Probability of collision Miss distance Type
FENGYUN 1C DEB SSO 2025-10-09 08:48:56 0.0001106849 805.0 (m) DEBRIS
CZ-2C DEB SSO 2025-09-20 09:13:30 0.0002564814 363.0 (m) DEBRIS
THOR ABLESTAR DEB LEO 2025-03-02 18:23:05 0.0001536993 145.0 (m) DEBRIS
COSMOS 1375 DEB LEO 2024-12-12 14:51:08 0.0005544004 390.0 (m) DEBRIS
RADARSAT SSO 2024-11-28 07:46:41 0.0001289259 170.0 (m) PAYLOAD

Associated space launch

The satellites SPOT 1, 2 and 3 (Satellite Probatoire de l'Observation de la Terre) were the first generation of SPOT earth observation satellites operated by Spot Image.

EYESAT A was lifted into orbit during the mission ‘Ariane 40 | SPOT 3’, on board a Ariane 40 space rocket.

The launch took place on Sept. 26, 1993, 1:45 a.m. from Ariane Launch Area 2.

For more information about the launch, click the button.

Launch to space Ariane 40 | SPOT 3
Ariane 40 | SPOT 3

Agency: N/A

Status: Launch Successful

Launch date: Sept. 26, 1993, 1:45 a.m. UTC

Rocket: Ariane 40

Launch pad: Ariane Launch Area 2

Location: Guiana Space Centre, French Guiana

...

Latest news about this satellite

There are no fresh news available about this satellite. Check back as we update our databases every day.


Newsletter sign-up

Weekly statistics, charts and insights to help you stay on top of the space industry.